Location: Cranford
(40.6578°N, 74.3024°W)
Time: 11:04:24
(UTC+00:00)

STARLINK-5161 - Pass Details

Date: 08 December 2022
Orbit: 539 x 540 km, 53.2° (Epoch: 01 February)

Event Time Altitude Azimuth Distance (km) Brightness Sun altitude
Rises 22:11:21 0° 239° (WSW) 2,644 ? -7.9°
Reaches altitude 10° 22:13:35 10° 243° (WSW) 1,755 ? -8.3°
Maximum altitude 22:17:30 60° 324° (NW) 598 ? -9.0°
Enters shadow 22:21:17 11° 45° (NE) 1,692 ? -9.6°
